Simultaneous Nadir Overpasses (SNOs) Predictions

Prediction of SNOs between NOAA-15 and METOP-C Satellite Orbit:

Table of predicted SNOs for the next 14.0 days since TLE Epoch: 6/3/2023
Index Date (NOAA-15) Time (NOAA-15) Lat,Lon (NOAA-15) SZA (NOAA-15 ) Date (METOP-C) Time (METOP-C) Lat,Lon (METOP-C) SZA (METOP-C ) Distance(km) Time Diff (sec)
1 06/06/2023 04:41:27 -81.09, -32.18 119.50 06/06/2023 04:40:13 -81.08, -32.05 119.53 2.65 74
2 06/06/2023 05:31:53 81.08, 135.48 60.52 06/06/2023 05:30:53 81.09, 135.52 60.50 0.95 60
3 06/06/2023 06:22:27 -81.08, -57.06 119.48 06/06/2023 06:21:34 -81.09, -57.20 119.51 2.66 53
4 06/06/2023 07:12:54 81.08, 110.23 60.51 06/06/2023 07:12:14 81.10, 110.36 60.52 2.81 40
5 06/06/2023 08:03:29 -81.10, -82.69 119.52 06/06/2023 08:02:56 -81.08, -82.73 119.55 1.74 33
6 06/06/2023 08:53:55 81.08, 84.97 60.50 06/06/2023 08:53:36 81.09, 84.84 60.49 2.44 19
7 06/06/2023 09:44:30 -81.10,-107.95 119.52 06/06/2023 09:44:17 -81.09,-107.88 119.53 1.37 13
8 06/06/2023 10:34:56 81.08, 59.71 60.50 06/06/2023 10:34:57 81.10, 59.68 60.50 1.61 1
9 06/06/2023 11:25:31 -81.10,-133.20 119.53 06/06/2023 11:25:38 -81.10,-133.03 119.51 2.91 7
10 06/06/2023 12:15:58 81.10, 34.09 60.46 06/06/2023 12:16:19 81.09, 34.15 60.47 1.63 21
11 06/06/2023 13:06:32 -81.10,-158.46 119.54 06/06/2023 13:07:00 -81.09,-158.56 119.54 1.87 28
12 06/06/2023 13:56:59 81.10, 8.83 60.45 06/06/2023 13:57:40 81.10, 9.00 60.49 2.99 41
13 06/06/2023 14:47:33 -81.10, 176.28 119.55 06/06/2023 14:48:21 -81.10, 176.29 119.53 0.12 48
14 06/06/2023 15:38:00 81.10, -16.43 60.45 06/06/2023 15:39:02 81.09, -16.53 60.46 2.04 62



Historial Predications of SNOs between NOAA-15 and METOP-C
